Location: Casper
(42.8670°N, 106.3130°W)
Time: 16:48:10
(UTC-06:00)

Daily predictions for brighter satellites

Satellite Brightness Start Highest point End
(mag) Time Altitude Azimuth Time Altitude Azimuth Time Altitude Azimuth
Cosmos 1076 Rocket 3.6 21:15:33 10° S 21:19:50 59° E 21:24:08 10° NNE
H-2A R/B 3.6 21:18:31 10° ESE 21:22:39 23° ENE 21:26:48 10° NNE
Cosmos 2100 Rocket 4.1 21:17:00 10° N 21:23:20 71° E 21:29:41 10° SSE
Lacrosse 5 1.9 21:20:39 10° NW 21:25:45 79° NE 21:30:49 10° SE
Abrixas rocket 2.5 21:23:00 10° WNW 21:26:13 63° NNE 21:29:26 10° ESE
Cosmos 1818 4.4 21:22:18 10° NW 21:27:31 48° WSW 21:32:42 10° S
Meteor 2-17 Rocket 4.5 21:22:00 10° N 21:28:11 76° E 21:34:19 10° SSE
SPOT 5 4.0 21:24:47 10° SE 21:29:09 32° ENE 21:33:43 10° N
Cosmos 2173 Rocket 4.0 21:23:35 10° N 21:29:47 73° E 21:36:01 10° SSE
YAOGAN 6 2.7 21:28:02 10° SSE 21:31:41 85° WSW 21:35:24 10° NNW
Cosmos 1408 Rocket 3.8 21:28:37 10° SSE 21:32:46 50° E 21:36:59 10° NNE
NOAA 11 4.4 21:30:06 10° SSE 21:35:25 61° ENE 21:40:47 10° N
Cosmos 2221 3.1 21:31:15 10° NNW 21:35:36 60° W 21:39:55 10° S
Cosmos 2061 Rocket 4.1 21:30:29 10° N 21:36:54 76° E 21:43:20 10° SSE
Meteor 1-29 3.2 21:35:56 10° N 21:39:23 76° WNW 21:42:49 10° SSW
Cosmos 1626 4.3 21:38:45 10° E 21:39:41 11° E 21:40:36 10° ENE
MetOp-B 4.4 21:35:07 10° SSE 21:40:20 57° ENE 21:45:36 10° N
Cosmos 1726 2.5 21:38:28 10° N 21:42:02 46° ENE 21:45:24 11° SSE
Envisat 4.3 21:37:43 10° SSW 21:42:28 40° W 21:47:16 10° NNW
Cosmos 2227 4.2 21:38:25 10° SSW 21:44:08 80° ESE 21:49:52 10° NNE
Cosmos 1814 Rocket 4.3 21:41:42 10° NNW 21:47:00 59° ENE 21:51:48 12° SE
Tiangong 1 0.7 21:44:13 10° W 21:47:01 80° SSW 21:49:35 12° ESE
Abrixas 2.8 21:49:24 10° SSW 21:51:53 34° SE 21:54:24 10° ENE
Cosmos 1763 Rocket 3.8 21:47:18 10° N 21:52:17 50° ENE 21:56:30 14° SE
Cosmos 841 Rocket 4.2 21:47:32 10° N 21:52:30 41° ENE 21:56:41 14° SE
Cosmos 332 Rocket 3.8 21:48:59 10° NNW 21:53:55 80° ENE 21:58:23 13° SSE
Terra 3.5 21:50:36 10° ESE 21:53:57 20° ENE 21:57:20 10° NNE
Cosmos 1500 Rocket 4.5 21:50:42 12° SSE 21:54:13 31° E 21:58:09 10° NNE
Cosmos 1725 Rocket 4.2 21:49:00 10° N 21:55:10 58° E 22:00:52 12° SSE
Helios 1B rocket 3.7 21:51:17 10° N 21:55:13 43° WNW 21:59:08 10° SW
Cosmos 1486 Rocket 4.3 21:53:08 10° S 21:58:09 48° ESE 22:03:16 10° NNE
Cosmos 1300 2.8 21:54:28 10° N 21:58:16 57° E 22:01:20 15° SSE
Cosmos 2263 Rocket 2.7 21:54:10 10° S 21:59:13 37° ESE 22:04:19 10° NE
ATLAS 5 CENTAUR R/B 3.9 21:55:01 10° WSW 21:59:17 32° NW 22:03:57 10° NNE
Cosmos 1802 Rocket 4.1 21:54:17 10° N 22:00:26 77° W 22:06:35 10° S
Cosmos 1766 Rocket 4.3 22:07:58 10° SSW 22:12:12 54° W 22:16:29 10° N
Cosmos 1151 Rocket 3.5 22:09:24 10° N 22:13:38 46° ENE 22:16:22 20° SE
Cosmos 1328 Rocket 3.5 22:09:22 10° N 22:13:42 85° E 22:17:09 16° S
SL-14 R/B 3.2 22:11:39 10° S 22:15:36 85° E 22:19:33 10° N
SPOT 1/Viking Rocket 3.6 22:13:42 17° SSE 22:17:39 67° ENE 22:22:46 10° N
Cosmos 2016 Rocket 4.4 22:15:03 10° NNW 22:21:14 64° W 22:27:17 10° S
USA 234 3.4 22:15:10 10° ENE 22:21:30 50° SE 22:27:48 10° SSW
Cosmos 1515 Rocket 3.5 22:17:51 10° N 22:22:12 76° E 22:25:09 20° SSE
H-2A R/B 3.3 22:24:41 18° ESE 22:26:49 27° ENE 22:30:24 10° N
ERS-1 Rocket 4.0 22:22:26 10° SSW 22:27:10 41° W 22:31:56 10° NNW
RESURS DK-1 3.7 22:23:39 10° NW 22:27:23 32° WSW 22:30:33 13° SSW
Cosmos 1743 Rocket 3.5 22:23:38 10° S 22:27:54 83° W 22:32:15 10° N
USA 245 3.7 22:26:02 18° S 22:28:38 64° W 22:33:07 10° NNW
Cosmos 1328 4.1 22:25:18 10° SSW 22:29:18 68° W 22:33:20 10° N
Cosmos 2058 3.1 22:26:59 22° SSE 22:29:30 54° E 22:33:39 10° NNE
Cosmos 1455 3.3 22:27:30 10° NNE 22:30:57 30° ENE 22:32:20 23° ESE
CZ-4C R/B 3.3 22:31:22 21° SE 22:32:18 22° ESE 22:36:30 10° ENE
Cosmos 1844 Rocket 4.3 22:31:43 14° ESE 22:32:20 14° E 22:35:14 10° ENE
ARGOS 3.5 22:28:10 14° S 22:32:51 62° WSW 22:38:14 10° NNW
EO 1 Delta rocket 4.0 22:37:39 18° S 22:41:02 69° W 22:45:45 10° NNW
Cosmos 2228 Rocket 3.8 22:36:50 10° NNW 22:41:19 53° W 22:44:45 16° SSW
Cosmos 371 Rocket 4.2 22:38:07 10° NNW 22:42:40 43° WSW 22:46:04 17° SSW
Meteor 2-12 Rocket 4.4 22:37:44 10° N 22:43:49 74° E 22:47:39 24° SSE
Cosmos 2233 Rocket 3.9 22:38:16 10° N 22:44:31 86° E 22:48:43 22° S
Cosmos 1503 Rocket 4.0 22:40:45 17° S 22:44:40 64° ESE 22:49:47 10° NNE
Cosmos 540 Rocket 3.7 22:40:36 10° NNW 22:45:41 56° ENE 22:48:19 27° SE
Cosmos 1943 3.4 22:40:19 10° NNW 22:45:55 65° WSW 22:49:30 23° S
Nimbus 7 Rocket 4.5 22:40:39 10° NNE 22:46:42 85° WNW 22:52:39 10° SSW
ERBS 3.9 22:48:15 10° WNW 22:50:58 23° SW 22:51:46 21° SSW
Cosmos 1869 4.2 22:56:43 10° N 23:00:20 33° ENE 23:01:10 30° ESE
H-2A R/B 2.7 22:58:02 20° S 23:01:39 52° W 23:06:58 10° NNW
Abrixas rocket 3.8 23:00:08 10° W 23:02:33 22° SW 23:02:33 22° SW
CZ-2C R/B 4.5 23:00:34 10° ENE 23:03:05 13° E 23:03:39 13° E
Sich 1 3.7 23:05:50 33° ESE 23:06:33 36° E 23:10:29 10° NNE
SPOT 5 4.4 23:03:27 13° SSW 23:07:09 31° W 23:11:42 10° NNW
Cosmos 2151 3.8 23:04:23 16° SSW 23:07:38 48° WNW 23:11:49 10° N
Lacrosse 5 3.8 23:04:46 10° WNW 23:08:10 18° WSW 23:10:17 14° SSW
SME Rocket 3.9 23:09:38 30° ESE 23:10:58 40° ENE 23:15:33 10° N
Cosmos 1400 Rocket 4.5 23:14:10 20° E 23:14:10 20° E 23:17:13 10° NE
Cosmos 1626 2.9 23:12:41 25° SW 23:14:33 48° WNW 23:18:11 10° N
Landsat 7 4.5 23:14:01 26° SSW 23:16:24 49° W 23:21:02 10° NNW
Cosmos 1703 4.0 23:14:36 24° SW 23:16:46 50° WNW 23:20:40 10° N
CZ-4C R/B 4.2 23:16:04 35° ESE 23:17:15 43° ENE 23:21:27 10° N
Tiangong 1 3.3 23:19:59 10° W 23:20:43 15° WSW 23:20:43 15° WSW
Cosmos 1707 Rocket 3.5 23:19:47 10° N 23:24:16 75° E 23:25:27 48° SSE
SL-19 R/B 4.2 23:19:12 10° NNE 23:24:36 90° NW 23:27:45 28° SSW
deb Chang Zheng 4 3.5 23:20:45 10° NNE 23:25:09 85° ESE 23:26:37 42° S
Abrixas 3.7 23:24:05 10° W 23:26:39 37° NNW 23:28:22 17° NE
ALOS 2 4.4 23:30:03 18° E 23:31:18 20° ENE 23:34:30 10° NNE
Terra 2.4 23:29:25 31° SSW 23:31:19 49° W 23:35:58 10° NNW
PSLV R/B 3.5 23:32:07 57° NW 23:32:07 57° NW 23:34:34 10° NNW
Cosmos 2278 Rocket 3.7 23:32:57 19° E 23:32:59 19° E 23:36:50 10° ENE
Cosmos 1666 Rocket 3.5 23:39:27 52° S 23:40:33 90° E 23:45:01 10° N
Cosmos 1844 4.1 23:39:55 39° SE 23:40:51 42° ESE 23:46:05 10° NE
Cosmos 2034 Rocket 4.0 23:35:34 10° N 23:41:56 80° E 23:44:27 39° SSE
DELTA 2 DEB (DPAF) 4.0 23:41:10 55° SSE 23:42:09 88° ENE 23:46:38 10° NNW
Cosmos 2263 Rocket 3.7 23:38:08 10° WSW 23:43:09 33° NW 23:48:13 10° N
CZ-4 R/B 4.0 23:40:12 10° N 23:45:01 69° WNW 23:46:58 35° SSW
Cosmos 1891 Rocket 4.4 23:39:55 10° N 23:46:00 85° W 23:48:22 40° S
CZ-2C R/B 4.0 23:44:55 31° ESE 23:47:04 43° ENE 23:52:20 10° N
Cosmos 1862 Rocket 4.2 23:44:29 10° N 23:48:39 41° ENE 23:49:13 39° E
Cosmos 1933 Rocket 4.1 23:49:53 40° E 23:50:02 40° E 23:54:06 10° NNE
Cosmos 2084 Rocket 3.0 23:47:06 10° NW 23:50:56 85° SW 23:50:59 84° SSW
Cosmos 1805 Rocket 4.4 23:49:45 30° SW 23:51:23 44° WNW 23:55:33 10° N
Cosmos 1633 Rocket 3.0 23:54:01 57° SSW 23:54:51 77° W 23:59:13 10° N
